Regional Weather Roundup
Issued by NWS

Home | Current Version | Previous Version | Text Only | Print | Product List | Glossary On
Versions: 1 2 3 4 5 6 7 8 9 10 11 12 13 14 15 16 17 18 19 20 21 22 23 24 25 26 27 28 29 30 31 32 33 34 35 36 37 38 39 40 41 42 43 44 45 46 47 48 49 50
000
ASUS46 KSEW 070110
RWRWA

WASHINGTON REGIONAL WEATHER ROUNDUP
NATIONAL WEATHER SERVICE SEATTLE WA
500 PM PST FRI MAR 06 2015

NOTE:"FAIR" INDICATES FEW OR NO CLOUDS BELOW 12,000 FEET WITH NO
SIGNIFICANT WEATHER AND/OR OBSTRUCTIONS TO VISIBILITY.

WAZ505-507>509-070200-
SEATTLE, TACOMA, EVERETT, AND VICINITY

CITY           SKY/WX    TMP DP  RH WIND       PRES   REMARKS
EVERETT        MOCLDY    52  38  58 N6        30.37S
BOEING FIELD   MOCLDY    59  37  44 NW6       30.36F
RENTON         MOCLDY    56  40  55 NW5       30.35F
SEATAC AIRPORT MOCLDY    57  36  45 NW3       30.36F
JBLM-MCCHORD   MOCLDY    59  35  41 N5        30.35F
PUYALLUP       FAIR      59  34  38 CALM      30.35F
BREMERTON      MOCLDY    55  43  62 NE6       30.38S
JBLM-FT LEWIS  MOCLDY    59  40  49 NW5       30.34F
TACOMA NARROWS MOCLDY    56  37  49 NE3       30.36S
$$

WAZ001-503-506-510-514-515-070200-
NORTH INTERIOR

CITY           SKY/WX    TMP DP  RH WIND       PRES   REMARKS
BELLINGHAM     MOCLDY    53  38  56 W5        30.37S
FRIDAY HARBOR  PTCLDY    52  35  52 CALM      30.38F
EASTSOUND      MOCLDY    48  39  71 CALM      30.37S
PORT ANGELES   PTCLDY    52  37  56 SE5       30.37F
NAS WHIDBEY    MOCLDY    51  42  71 W3        30.38F
ARLINGTON      MOCLDY    54  41  62 NW7       30.38S
BURLINGTON     CLEAR     52  43  71 NW8       30.38F
$$

WAZ020-022-039-040-504-511-512-070200-
SOUTHWEST INTERIOR

CITY           SKY/WX    TMP DP  RH WIND       PRES   REMARKS
SHELTON        MOCLDY    60  36  40 SE6       30.33F
OLYMPIA        MOCLDY    60  37  42 N7        30.35F
CHEHALIS       FAIR      63  41  45 CALM      30.34S
KELSO          PTSUNNY   64  36  34 N3        30.34F
VANCOUVER      PTSUNNY   63  39  41 W5        30.31F
SCAPPOOSE, OR  PTSUNNY   64  35  34 CALM      30.31F
PORTLAND, OR   CLOUDY    64  38  38 W7        30.32F
$$

WAZ021-516-517-070200-
WASHINGTON COAST

CITY           SKY/WX    TMP DP  RH WIND       PRES   REMARKS
FORKS          PTSUNNY   57  35  43 SW7       30.35S
HOQUIAM        MOSUNNY   56  43  61 W8        30.34F
ASTORIA, OR    PTSUNNY   54  47  77 W7        30.34F
$$

WAZ019-023-024-040-518-519-070200-
CASCADE MOUNTAINS AND COLUMBIA GORGE

CITY           SKY/WX    TMP DP  RH WIND       PRES   REMARKS
TROUTDALE, OR  MOCLDY    64  39  39 CALM      30.30F
THE DALLES, OR MOCLDY    66  36  32 CALM      30.27F
$$

WAZ026-027-041>044-520-521-070200-
EAST SLOPES

CITY           SKY/WX    TMP DP  RH WIND       PRES   REMARKS
OMAK           MOCLDY    58  30  34 CALM      30.31F
WENATCHEE      MOCLDY    59  32  36 SE7       30.28F
ELLENSBURG     MOCLDY    64  34  32 SE3       30.27S
YAKIMA         MOCLDY    61  34  36 S6        30.29S
$$

WAZ028-034-035-070200-
COLUMBIA BASIN

CITY           SKY/WX    TMP DP  RH WIND       PRES   REMARKS
EPHRATA        MOCLDY    58  31  35 CALM      30.29F
MOSES LAKE     MOCLDY    58  30  34 SW6       30.30F
PASCO          PTCLDY    62  38  40 NW3       30.29F
HERMISTON, OR  PTCLDY    64  31  28 CALM      30.28F
$$

WAZ036>038-070200-
NORTHEAST WASHINGTON

CITY           SKY/WX    TMP DP  RH WIND       PRES   REMARKS
SPOKANE GEIGER MOCLDY    57  28  33 SW6       30.30F
SPOKANE FELTS  MOCLDY    59  28  30 SW5       30.30F
FAIRCHILD AFB  MOCLDY    55  31  40 S6        30.30F
COEURDALENE,ID CLOUDY    55  34  44 CALM      30.29F
DEER PARK      CLOUDY    57  31  37 SW3       30.30F
$$

WAZ029>033-070200-
SOUTHEAST WASHINGTON

CITY           SKY/WX    TMP DP  RH WIND       PRES   REMARKS
PULLMAN        CLOUDY    54  29  38 N3        30.33F
LEWISTON, ID   CLOUDY    55  33  43 N3        30.31F
WALLA WALLA    PTCLDY    64  34  32 W5        30.29F
PENDLETON, OR  MOCLDY    62  30  29 CALM      30.29F
$$


USA.gov is the U.S. government's official web portal to all federal, state and local government web resources and services.